AICD5V VISR-VABB

Flight info

Callsign AICD5V
Flight time N/A
Altitude 38000
Route SGR DCT PANLA W23 BIKUX W21 KIKED W23 ASARI Z1 QQZ/N0444F370 W77 SG/N0445F380 A474 AKTIV IGBAN2A
Aircraft A21N/M-SDE2E3FGHIRWXY/LB1

Departure

Time N/A
Airport Sheikh ul Alam International Airport (VISR)

Arrival

Time 2026-05-05 11:40
Airport Chhatrapati Shivaji Maharaj International Airport (VABB)
Time Latitude Longitude Altitude Speed Heading
2026-05-05 10:29 26.77493 74.23722 37904 ft 501 kts 196°
2026-05-05 10:30 26.70651 74.22178 37904 ft 502 kts 195°
2026-05-05 10:30 26.63814 74.20643 37904 ft 502 kts 195°
2026-05-05 10:31 26.56965 74.19104 37904 ft 503 kts 196°
2026-05-05 10:31 26.50093 74.17540 37904 ft 503 kts 196°
2026-05-05 10:32 26.43265 74.15976 37904 ft 503 kts 196°
2026-05-05 10:32 26.36369 74.14393 37904 ft 503 kts 196°
2026-05-05 10:33 26.32216 74.13440 37904 ft 503 kts 196°
2026-05-05 10:33 26.25171 74.11824 37904 ft 503 kts 196°
2026-05-05 10:34 26.24789 74.11737 37904 ft 503 kts 196°
2026-05-05 10:34 26.21545 74.10993 37904 ft 503 kts 196°
2026-05-05 10:35 26.18516 74.10299 37904 ft 503 kts 196°
2026-05-05 10:35 26.14803 74.09450 37904 ft 503 kts 196°
2026-05-05 10:36 26.09542 74.08247 37904 ft 503 kts 196°
2026-05-05 10:36 26.02657 74.06675 37904 ft 503 kts 196°
2026-05-05 10:37 25.96839 74.05348 37904 ft 503 kts 196°
2026-05-05 10:37 25.89905 74.03768 37904 ft 503 kts 196°
2026-05-05 10:38 25.82940 74.02182 37904 ft 503 kts 196°
2026-05-05 10:38 25.76069 74.00613 37904 ft 503 kts 196°
2026-05-05 10:39 25.69207 73.99040 37904 ft 503 kts 196°
2026-05-05 10:39 25.62342 73.97465 37904 ft 503 kts 196°
2026-05-05 10:40 25.55479 73.95891 37904 ft 503 kts 196°
2026-05-05 10:40 25.50916 73.94845 37904 ft 503 kts 196°
2026-05-05 10:41 25.41630 73.92719 37904 ft 503 kts 196°
2026-05-05 10:41 25.34685 73.91131 37904 ft 503 kts 196°
2026-05-05 10:42 25.24381 73.88779 37904 ft 503 kts 196°
2026-05-05 10:43 25.17519 73.87214 37904 ft 503 kts 196°
2026-05-05 10:43 25.10648 73.85649 37904 ft 503 kts 196°
2026-05-05 10:44 25.03809 73.84094 37904 ft 503 kts 196°
2026-05-05 10:44 24.96942 73.82533 37904 ft 503 kts 196°
2026-05-05 10:45 24.90141 73.80989 37904 ft 503 kts 196°
2026-05-05 10:45 24.83213 73.79417 37904 ft 503 kts 196°
2026-05-05 10:46 24.76351 73.77856 37904 ft 503 kts 196°
2026-05-05 10:46 24.69542 73.76300 37904 ft 503 kts 196°
2026-05-05 10:47 24.62652 73.74722 37904 ft 503 kts 196°
2026-05-05 10:47 24.55839 73.73162 37904 ft 503 kts 196°
2026-05-05 10:48 24.48967 73.71589 37904 ft 503 kts 196°
2026-05-05 10:48 24.42094 73.70016 37904 ft 504 kts 195°
2026-05-05 10:49 24.35194 73.68433 37904 ft 508 kts 195°
2026-05-05 10:49 24.28245 73.66835 37904 ft 511 kts 195°
2026-05-05 10:50 24.21289 73.65236 37904 ft 511 kts 195°
2026-05-05 10:50 24.14357 73.63644 37904 ft 512 kts 195°
2026-05-05 10:51 24.08480 73.62295 37904 ft 511 kts 195°
2026-05-05 10:51 24.01436 73.60680 37904 ft 511 kts 195°
2026-05-05 10:52 23.94528 73.59098 37904 ft 510 kts 195°
2026-05-05 10:52 23.88641 73.57751 37904 ft 509 kts 196°
2026-05-05 10:53 23.81691 73.56162 37904 ft 508 kts 196°
2026-05-05 10:53 23.74653 73.54554 37904 ft 507 kts 196°
2026-05-05 10:54 23.67690 73.52964 37904 ft 506 kts 196°
2026-05-05 10:54 23.60852 73.51405 37904 ft 506 kts 196°
2026-05-05 10:55 23.53950 73.49832 37904 ft 506 kts 196°
2026-05-05 10:55 23.47012 73.48252 37904 ft 505 kts 196°
2026-05-05 10:56 23.40126 73.46686 37904 ft 505 kts 196°
2026-05-05 10:56 23.33312 73.45138 37904 ft 505 kts 196°
2026-05-05 10:57 23.26355 73.43560 37904 ft 504 kts 196°
2026-05-05 10:57 23.19471 73.41999 37904 ft 504 kts 196°
2026-05-05 10:58 23.12606 73.40445 37904 ft 504 kts 196°
2026-05-05 10:58 23.05719 73.38887 37904 ft 504 kts 196°
2026-05-05 10:59 22.98843 73.37333 37904 ft 504 kts 196°
2026-05-05 10:59 22.91973 73.35781 37904 ft 504 kts 196°
2026-05-05 11:00 22.85049 73.34220 37904 ft 504 kts 196°
2026-05-05 11:00 22.78159 73.32667 37904 ft 506 kts 195°
2026-05-05 11:01 22.71365 73.31137 37904 ft 507 kts 195°
2026-05-05 11:01 22.64364 73.29562 37904 ft 508 kts 195°
2026-05-05 11:02 22.57461 73.28012 37904 ft 508 kts 195°
2026-05-05 11:02 22.50508 73.26452 37904 ft 509 kts 195°
2026-05-05 11:03 22.43556 73.24896 37904 ft 507 kts 196°
2026-05-05 11:03 22.36681 73.23374 37903 ft 507 kts 194°
2026-05-05 11:03 22.33156 73.23090 37903 ft 512 kts 183°
2026-05-05 11:04 22.29584 73.23359 37907 ft 515 kts 176°
2026-05-05 11:04 22.24214 73.24391 37801 ft 519 kts 171°
2026-05-05 11:04 22.22366 73.24834 36807 ft 533 kts 170°
2026-05-05 11:05 22.18777 73.25830 36639 ft 521 kts 168°
2026-05-05 11:05 22.15292 73.26896 36749 ft 507 kts 167°
2026-05-05 11:05 22.12002 73.27954 37294 ft 495 kts 166°
2026-05-05 11:05 22.08654 73.29049 37682 ft 498 kts 166°
2026-05-05 11:06 22.05294 73.30148 37847 ft 507 kts 166°
2026-05-05 11:06 21.98525 73.32335 37904 ft 513 kts 166°
2026-05-05 11:07 21.91656 73.34502 37904 ft 516 kts 166°
2026-05-05 11:07 21.84722 73.36642 37904 ft 517 kts 167°
2026-05-05 11:08 21.77787 73.38741 37904 ft 518 kts 167°
2026-05-05 11:08 21.70873 73.40805 37904 ft 518 kts 167°
2026-05-05 11:09 21.63922 73.42860 37904 ft 518 kts 167°
2026-05-05 11:09 21.56959 73.44903 37904 ft 518 kts 167°
2026-05-05 11:10 21.49990 73.46938 37904 ft 519 kts 167°
2026-05-05 11:10 21.43052 73.48958 37904 ft 519 kts 167°
2026-05-05 11:11 21.36069 73.50986 37904 ft 519 kts 167°
2026-05-05 11:11 21.29078 73.53013 37904 ft 520 kts 167°
2026-05-05 11:12 21.22129 73.55026 37904 ft 520 kts 167°
2026-05-05 11:12 21.17107 73.56081 37901 ft 514 kts 180°
2026-05-05 11:13 21.10061 73.55346 37909 ft 506 kts 196°
2026-05-05 11:13 21.03721 73.53509 37907 ft 502 kts 202°
2026-05-05 11:14 20.97152 73.51134 37905 ft 501 kts 204°
2026-05-05 11:14 20.93968 73.49924 37905 ft 500 kts 204°
2026-05-05 11:15 20.87409 73.47426 37904 ft 500 kts 204°
2026-05-05 11:15 20.81950 73.45385 37904 ft 500 kts 204°
2026-05-05 11:16 20.74257 73.42592 37904 ft 501 kts 203°
2026-05-05 11:16 20.68732 73.40641 37904 ft 501 kts 202°
2026-05-05 11:17 20.62096 73.38344 37904 ft 501 kts 202°
2026-05-05 11:17 20.56434 73.36412 37904 ft 502 kts 202°
2026-05-05 11:18 20.49763 73.34160 37904 ft 503 kts 202°
2026-05-05 11:18 20.43096 73.31926 37904 ft 503 kts 201°
2026-05-05 11:19 20.36747 73.29809 37904 ft 503 kts 201°
2026-05-05 11:19 20.30107 73.27604 37903 ft 489 kts 201°
2026-05-05 11:19 20.26909 73.26550 37902 ft 478 kts 202°
2026-05-05 11:20 20.24439 73.25712 37903 ft 466 kts 202°
2026-05-05 11:20 20.22185 73.24920 37902 ft 454 kts 203°
2026-05-05 11:20 20.19234 73.23851 37901 ft 439 kts 204°
2026-05-05 11:20 20.16369 73.22790 37610 ft 434 kts 204°
2026-05-05 11:21 20.13498 73.21735 37050 ft 436 kts 204°
2026-05-05 11:21 20.10626 73.20695 36497 ft 436 kts 204°
2026-05-05 11:21 20.07755 73.19673 35947 ft 435 kts 204°
2026-05-05 11:21 20.04878 73.18666 35398 ft 434 kts 204°
2026-05-05 11:22 20.02038 73.17685 34894 ft 433 kts 204°
2026-05-05 11:22 19.99166 73.16706 34432 ft 432 kts 204°
2026-05-05 11:22 19.96311 73.15745 33980 ft 431 kts 204°
2026-05-05 11:22 19.93435 73.14785 33526 ft 429 kts 204°
2026-05-05 11:23 19.91685 73.14205 33250 ft 428 kts 204°
2026-05-05 11:23 19.88843 73.13268 32799 ft 427 kts 204°
2026-05-05 11:23 19.86010 73.12339 32348 ft 425 kts 204°
2026-05-05 11:23 19.83199 73.11421 31900 ft 423 kts 205°
2026-05-05 11:24 19.80415 73.10514 31454 ft 422 kts 205°
2026-05-05 11:24 19.77603 73.09601 31003 ft 420 kts 205°
2026-05-05 11:24 19.74814 73.08696 30554 ft 419 kts 205°
2026-05-05 11:24 19.72019 73.07791 30102 ft 417 kts 205°
2026-05-05 11:25 19.69251 73.06896 29652 ft 415 kts 205°
2026-05-05 11:25 19.66485 73.06002 29201 ft 413 kts 204°
2026-05-05 11:25 19.63727 73.05112 28749 ft 412 kts 204°
2026-05-05 11:25 19.61022 73.04239 28304 ft 410 kts 204°
2026-05-05 11:26 19.58302 73.03362 27853 ft 408 kts 204°
2026-05-05 11:26 19.55584 73.02486 27401 ft 405 kts 204°
2026-05-05 11:26 19.52907 73.01624 26920 ft 404 kts 204°
2026-05-05 11:26 19.50199 73.00750 26381 ft 405 kts 204°
2026-05-05 11:27 19.47526 72.99888 25844 ft 403 kts 204°
2026-05-05 11:27 19.44840 72.99023 25294 ft 401 kts 203°
2026-05-05 11:27 19.42173 72.98165 24738 ft 399 kts 203°
2026-05-05 11:27 19.39532 72.97317 24148 ft 391 kts 203°
2026-05-05 11:28 19.36959 72.96513 23448 ft 385 kts 201°
2026-05-05 11:28 19.34340 72.95857 22669 ft 386 kts 194°
2026-05-05 11:28 19.31651 72.95935 21818 ft 394 kts 174°
2026-05-05 11:28 19.29096 72.96935 20956 ft 398 kts 153°
2026-05-05 11:29 19.26913 72.98805 20071 ft 399 kts 133°
2026-05-05 11:29 19.25259 73.01111 19221 ft 396 kts 124°
2026-05-05 11:29 19.23706 73.03540 18344 ft 394 kts 124°
2026-05-05 11:29 19.22060 73.05865 17468 ft 392 kts 127°
2026-05-05 11:30 19.20244 73.07973 16601 ft 389 kts 133°
2026-05-05 11:30 19.18216 73.09835 15732 ft 386 kts 139°
2026-05-05 11:30 19.16016 73.11455 14858 ft 381 kts 141°
2026-05-05 11:30 19.14182 73.13373 13965 ft 367 kts 123°
2026-05-05 11:31 19.13116 73.15762 13089 ft 354 kts 103°
2026-05-05 11:31 19.12934 73.18310 12239 ft 343 kts 82°
2026-05-05 11:31 19.13640 73.20629 11604 ft 328 kts 60°
2026-05-05 11:31 19.15090 73.22434 10973 ft 316 kts 38°
2026-05-05 11:32 19.17030 73.23444 10345 ft 308 kts 15°
2026-05-05 11:32 19.19143 73.23529 9715 ft 301 kts 351°
2026-05-05 11:32 19.21034 73.22712 9097 ft 296 kts 327°
2026-05-05 11:32 19.22418 73.21145 8473 ft 293 kts 303°
2026-05-05 11:33 19.23041 73.19109 7850 ft 291 kts 278°
2026-05-05 11:33 19.22788 73.17020 7227 ft 291 kts 253°
2026-05-05 11:33 19.21700 73.15219 6599 ft 291 kts 228°
2026-05-05 11:33 19.19993 73.14069 6081 ft 288 kts 206°
2026-05-05 11:34 19.18166 73.13337 5648 ft 282 kts 199°
2026-05-05 11:34 19.16256 73.12870 5145 ft 279 kts 195°
2026-05-05 11:34 19.15771 73.12727 5013 ft 278 kts 198°
2026-05-05 11:34 19.14178 73.12134 4578 ft 274 kts 201°
2026-05-05 11:35 19.12294 73.11814 4071 ft 273 kts 184°
2026-05-05 11:35 19.10471 73.11551 3711 ft 261 kts 199°
2026-05-05 11:35 19.09021 73.10506 3474 ft 248 kts 227°
2026-05-05 11:35 19.08287 73.08917 3205 ft 238 kts 256°
2026-05-05 11:36 19.08292 73.07202 2916 ft 233 kts 275°
2026-05-05 11:36 19.08577 73.05518 2595 ft 230 kts 280°
2026-05-05 11:36 19.08858 73.03888 2405 ft 222 kts 279°
2026-05-05 11:36 19.09015 73.02324 2289 ft 205 kts 275°
2026-05-05 11:37 19.09039 73.00860 2153 ft 191 kts 271°
2026-05-05 11:37 19.09021 72.99498 2099 ft 178 kts 270°
2026-05-05 11:37 19.08998 72.98241 2113 ft 167 kts 270°
2026-05-05 11:37 19.08987 72.97397 2111 ft 169 kts 270°
2026-05-05 11:38 19.08983 72.96140 2017 ft 175 kts 271°
2026-05-05 11:38 19.08970 72.94874 1857 ft 173 kts 270°
2026-05-05 11:38 19.08963 72.94314 1788 ft 173 kts 270°
2026-05-05 11:38 19.08954 72.93281 1648 ft 173 kts 269°
2026-05-05 11:39 19.08947 72.92573 1558 ft 173 kts 268°
2026-05-05 11:39 19.08931 72.91277 1262 ft 176 kts 268°
2026-05-05 11:39 19.08917 72.89984 951 ft 176 kts 268°
2026-05-05 11:39 19.08914 72.88985 670 ft 178 kts 269°
2026-05-05 11:40 19.08892 72.87679 226 ft 175 kts 269°
2026-05-05 11:40 19.08862 72.86565 69 ft 156 kts 269°
2026-05-05 11:40 19.08858 72.85541 49 ft 115 kts 269°
2026-05-05 11:40 19.08848 72.84968 49 ft 44 kts 268°
2026-05-05 11:41 19.08866 72.84807 49 ft 5 kts 347°
2026-05-05 11:41 19.08918 72.84815 49 ft 10 kts 25°
2026-05-05 11:41 19.08954 72.84889 49 ft 14 kts 74°
2026-05-05 11:41 19.08985 72.85004 49 ft 19 kts 73°
2026-05-05 11:42 19.09026 72.85131 49 ft 3 kts 34°
2026-05-05 11:42 19.09056 72.85134 49 ft 11 kts
2026-05-05 11:42 19.09099 72.85229 49 ft 33 kts 90°
2026-05-05 11:42 19.09099 72.85345 49 ft 8 kts 89°
2026-05-05 11:43 19.09108 72.85402 49 ft 4 kts 43°
2026-05-05 11:43 19.09120 72.85407 49 ft 6 kts 10°
2026-05-05 11:43 19.09166 72.85408 49 ft 0 kts 360°
2026-05-05 11:44 19.08973 72.84961 49 ft 17 kts 73°
2026-05-05 11:44 19.08904 72.88551 541 ft 178 kts 268°
2026-05-05 11:45 19.08883 72.87272 105 ft 172 kts 269°
2026-05-05 11:45 19.08863 72.86102 60 ft 145 kts 270°
2026-05-05 11:45 19.08859 72.85698 49 ft 126 kts 269°